Location: ??????
(41.3794°N, 22.5014°E)
Time: 07:58:37
(UTC+00:00)

H-2A R/B - Pass Details

Date: 30 November 2020
Orbit: 733 x 836 km, 98.2° (Epoch: 17 January)

Event Time Altitude Azimuth Distance (km) Brightness Sun altitude
Exits shadow 16:26:03 23° 62° (ENE) 1,615 3.1 -15.5°
Drops below altitude 10° 16:29:54 10° 14° (NNE) 2,338 4.2 -16.2°
Sets 16:32:35 0° 1° (N) 3,252 5.1 -16.7°
